DW1347 Weather Reports


Display with metric or nautical units.
time (UTC)temp
F
wind
direction
speed
MPH
gust
MPH
rain 1hr
in
rain 24hr
in
rain mn
in
humidity
%
barometer
mb
20260503180506 60 338 5.0 7.0 0.00 0.00 0.00 26 1024.4
20260503180003 60 353 4.0 5.0 0.00 0.00 0.00 26 1024.6
20260503175501 59 45 3.0 5.0 0.00 0.00 0.00 27 1024.7
20260503174956 59 225 1.0 2.0 0.00 0.00 0.00 28 1024.9
20260503174455 58 271 4.0 5.0 0.00 0.00 0.00 28 1024.9
20260503173950 58 6 5.0 7.0 0.00 0.00 0.00 27 1025.0
20260503173445 59 222 3.0 3.0 0.00 0.00 0.00 30 1025.1
20260503172943 58 216 1.0 1.0 0.00 0.00 0.00 29 1025.1
20260503172440 58 158 3.0 5.0 0.00 0.00 0.00 28 1025.4
20260503171937 58 222 1.0 2.0 0.00 0.00 0.00 31 1025.4
20260503171433 58 241 3.0 5.0 0.00 0.00 0.00 30 1025.4
20260503170931 58 234 5.0 7.0 0.00 0.00 0.00 29 1025.5
20260503170427 58 219 0.0 0.0 0.00 0.00 0.00 32 1025.5
20260503150814 51 262 4.0 6.0 0.00 0.00 0.00 39 1025.9
20260503150309 50 218 1.0 2.0 0.00 0.00 0.00 49 1026.0
20260503140234 42 225 0.0 0.0 0.00 0.00 0.00 61 1026.4
20260503131203 39 226 1.0 1.0 0.00 0.00 0.00 60 1026.1
20260503130701 37 195 1.0 1.0 0.00 0.00 0.00 58 1026.1
20260503130158 37 211 0.0 0.0 0.00 0.00 0.00 59 1026.0
20260503120118 35 222 0.0 0.0 0.00 0.00 0.00 62 1025.6
20260503110545 36 168 2.0 2.0 0.00 0.00 0.00 57 1025.4
20260503090432 36 217 0.0 0.0 0.00 0.00 0.00 61 1026.2
20260503081358 36 210 0.0 0.0 0.00 0.00 0.00 62 1026.4
20260503080855 35 200 0.0 0.0 0.00 0.00 0.00 62 1026.5
20260503080352 35 203 0.0 0.0 0.00 0.00 0.00 63 1026.5
20260503072829 35 231 0.0 0.0 0.00 0.00 0.00 60 1026.8
20260503072326 35 220 0.0 0.0 0.00 0.00 0.00 60 1027.1
20260503071822 35 176 1.0 1.0 0.00 0.00 0.00 59 1026.8
20260503071320 34 191 1.0 1.0 0.00 0.00 0.00 58 1026.6
20260503070815 34 190 1.0 1.0 0.00 0.00 0.00 58 1026.6
20260503070308 34 195 1.0 1.0 0.00 0.00 0.00 59 1026.9
20260503060232 35 218 0.0 0.0 0.00 0.00 0.00 52 1026.8
20260503054719 35 201 0.0 1.0 0.00 0.00 0.00 52 1026.6
20260503054216 36 213 0.0 0.0 0.00 0.00 0.00 51 1026.9
20260503053714 36 209 0.0 0.0 0.00 0.00 0.00 49 1027.1
20260503053213 36 208 0.0 0.0 0.00 0.00 0.00 46 1026.8
20260503052709 37 130 3.0 3.0 0.00 0.00 0.00 48 1026.6
20260503052206 36 183 1.0 1.0 0.00 0.00 0.00 50 1027.0
20260503051701 37 168 1.0 1.0 0.00 0.00 0.00 49 1027.0
20260503051159 38 226 1.0 1.0 0.00 0.00 0.00 47 1026.9
20260503050655 37 179 2.0 2.0 0.00 0.00 0.00 47 1026.9
20260503050152 38 219 1.0 2.0 0.00 0.00 0.00 46 1027.0
20260503045649 37 204 0.0 0.0 0.00 0.00 0.00 48 1027.1
20260503045146 37 220 0.0 0.0 0.00 0.00 0.00 47 1026.9
20260503044643 38 228 0.0 0.0 0.00 0.00 0.00 49 1026.9
20260503044141 38 175 2.0 2.0 0.00 0.00 0.00 47 1026.8
20260503043637 37 198 0.0 1.0 0.00 0.00 0.00 49 1026.8
20260503043134 38 222 0.0 0.0 0.00 0.00 0.00 49 1026.6
20260503042630 38 195 1.0 1.0 0.00 0.00 0.00 46 1026.9
20260503042126 38 228 0.0 0.0 0.00 0.00 0.00 46 1026.6
20260503041618 38 197 0.0 1.0 0.00 0.00 0.00 48 1026.5
20260503041115 38 199 0.0 0.0 0.00 0.00 0.00 49 1026.9
20260503040612 39 201 0.0 0.0 0.00 0.00 0.00 47 1026.5
20260503040109 39 205 0.0 0.0 0.00 0.00 0.00 48 1026.6
20260503035606 39 201 1.0 1.0 0.00 0.00 0.00 47 1026.8
20260503035103 39 201 0.0 1.0 0.00 0.00 0.00 47 1026.6
20260503034600 39 196 1.0 1.0 0.00 0.00 0.00 47 1027.0
20260503034058 40 222 0.0 0.0 0.00 0.00 0.00 45 1026.5
20260503033555 40 163 2.0 2.0 0.00 0.00 0.00 45 1026.2
20260503033053 41 222 0.0 0.0 0.00 0.00 0.00 45 1026.6
20260503032551 41 211 0.0 0.0 0.00 0.00 0.00 45 1026.8
20260503032049 41 202 1.0 1.0 0.00 0.00 0.00 44 1026.4
20260503031546 42 192 1.0 1.0 0.00 0.00 0.00 42 1026.5
20260503031044 42 210 0.0 0.0 0.00 0.00 0.00 41 1026.8
20260503030539 42 179 1.0 2.0 0.00 0.00 0.00 43 1026.8
20260503030037 42 207 0.0 0.0 0.00 0.00 0.00 43 1026.6
20260503025533 43 206 0.0 0.0 0.00 0.00 0.00 41 1026.5
20260503025031 43 194 0.0 1.0 0.00 0.00 0.00 44 1026.6
20260503024527 44 192 1.0 1.0 0.00 0.00 0.00 41 1026.6
20260503024024 45 210 0.0 0.0 0.00 0.00 0.00 40 1026.4
20260503023521 45 215 0.0 0.0 0.00 0.00 0.00 38 1026.5
20260503023018 46 209 0.0 0.0 0.00 0.00 0.00 38 1026.5
20260503022514 46 214 0.0 0.0 0.00 0.00 0.00 36 1026.4
20260503022009 46 214 0.0 0.0 0.00 0.00 0.00 36 1026.4
20260503021506 47 212 0.0 0.0 0.00 0.00 0.00 32 1026.5
20260503021003 48 201 1.0 1.0 0.00 0.00 0.00 32 1026.4
20260503020500 47 179 1.0 1.0 0.00 0.00 0.00 32 1026.2
20260503015957 48 220 0.0 0.0 0.00 0.00 0.00 32 1026.4
20260503015454 48 213 0.0 0.0 0.00 0.00 0.00 31 1026.1
20260503014950 49 201 1.0 1.0 0.00 0.00 0.00 33 1026.0
20260503014447 50 221 0.0 0.0 0.00 0.00 0.00 34 1025.9
20260503013945 51 221 0.0 0.0 0.00 0.00 0.00 30 1026.0
20260503013442 52 215 0.0 0.0 0.00 0.00 0.00 31 1026.1
20260503012939 53 218 0.0 0.0 0.00 0.00 0.00 27 1026.0
20260503012437 54 190 1.0 1.0 0.00 0.00 0.00 24 1025.9
20260503011933 55 149 2.0 2.0 0.00 0.00 0.00 25 1025.9
20260503011430 56 224 0.0 0.0 0.00 0.00 0.00 23 1025.5
20260503010927 57 315 3.0 3.0 0.00 0.00 0.00 23 1025.5
20260503010424 57 155 1.0 2.0 0.00 0.00 0.00 24 1025.4
20260503005921 57 232 0.0 0.0 0.00 0.00 0.00 23 1025.4
20260503005418 58 0 3.0 3.0 0.00 0.00 0.00 23 1025.5
20260503004915 59 359 2.0 2.0 0.00 0.00 0.00 23 1025.4
20260503004412 60 31 2.0 3.0 0.00 0.00 0.00 23 1025.6
20260503003909 60 164 4.0 5.0 0.00 0.00 0.00 22 1025.5
20260503003405 60 231 0.0 0.0 0.00 0.00 0.00 22 1025.5
20260503002903 60 203 1.0 2.0 0.00 0.00 0.00 21 1025.4
20260503002400 59 205 2.0 2.0 0.00 0.00 0.00 21 1025.6
20260503001856 60 6 7.0 9.0 0.00 0.00 0.00 20 1025.9
20260503001353 59 156 1.0 2.0 0.00 0.00 0.00 21 1025.5
20260503000851 60 154 2.0 2.0 0.00 0.00 0.00 21 1025.5
20260503000348 59 172 3.0 3.0 0.00 0.00 0.00 22 1025.5
20260502235845 58 125 3.0 5.0 0.00 0.00 0.00 21 1025.7
20260502235342 58 187 2.0 2.0 0.00 0.00 0.00 21 1025.9
20260502234838 59 204 2.0 2.0 0.00 0.00 0.00 22 1025.5
20260502234336 59 222 0.0 1.0 0.00 0.00 0.00 21 1025.6
20260502233832 61 142 1.0 1.0 0.00 0.00 0.00 21 1025.9
20260502233328 60 195 2.0 3.0 0.00 0.00 0.00 20 1025.6
20260502232825 60 132 2.0 3.0 0.00 0.00 0.00 21 1025.6
20260502232321 61 97 6.0 7.0 0.00 0.00 0.00 20 1025.5
20260502231818 61 54 2.0 3.0 0.00 0.00 0.00 20 1025.7
20260502231316 61 54 3.0 3.0 0.00 0.00 0.00 21 1025.5
20260502230814 63 150 1.0 2.0 0.00 0.00 0.00 21 1025.9
20260502230312 60 284 2.0 2.0 0.00 0.00 0.00 20 1025.5
20260502225809 62 166 1.0 2.0 0.00 0.00 0.00 21 1025.6
20260502225305 62 281 5.0 6.0 0.00 0.00 0.00 21 1025.5
20260502224801 62 266 7.0 8.0 0.00 0.00 0.00 21 1025.5
20260502224252 63 238 2.0 2.0 0.00 0.00 0.00 22 1025.7
20260502223750 64 168 3.0 6.0 0.00 0.00 0.00 20 1025.6
20260502223248 62 238 2.0 2.0 0.00 0.00 0.00 22 1025.7
20260502222745 61 106 2.0 3.0 0.00 0.00 0.00 22 1025.7
20260502222242 62 13 7.0 7.0 0.00 0.00 0.00 22 1025.9
20260502221737 62 102 4.0 6.0 0.00 0.00 0.00 21 1026.0
20260502221234 62 336 5.0 7.0 0.00 0.00 0.00 22 1026.0
20260502220730 60 35 2.0 3.0 0.00 0.00 0.00 23 1026.1
20260502220227 64 12 10.0 15.0 0.00 0.00 0.00 22 1026.1
20260502215718 63 275 4.0 5.0 0.00 0.00 0.00 22 1025.9
20260502215215 63 201 5.0 8.0 0.00 0.00 0.00 22 1026.1
20260502214713 64 199 0.0 1.0 0.00 0.00 0.00 23 1026.4
20260502214210 62 223 3.0 3.0 0.00 0.00 0.00 25 1026.4
20260502213707 63 215 2.0 2.0 0.00 0.00 0.00 23 1026.6
20260502213204 61 133 1.0 5.0 0.00 0.00 0.00 24 1026.5
20260502212702 60 180 2.0 2.0 0.00 0.00 0.00 25 1026.8
20260502212200 63 149 4.0 6.0 0.00 0.00 0.00 24 1026.8
20260502211656 62 128 2.0 3.0 0.00 0.00 0.00 25 1026.8
20260502211153 61 241 0.0 0.0 0.00 0.00 0.00 26 1026.8
20260502210650 60 256 1.0 2.0 0.00 0.00 0.00 25 1027.0
20260502210147 60 178 4.0 5.0 0.00 0.00 0.00 26 1027.0
20260502205644 62 62 2.0 2.0 0.00 0.00 0.00 26 1027.1
20260502205141 61 230 4.0 5.0 0.00 0.00 0.00 27 1026.9
20260502204637 61 223 0.0 1.0 0.00 0.00 0.00 28 1027.6
20260502204135 62 140 4.0 5.0 0.00 0.00 0.00 26 1027.3
20260502203632 60 267 1.0 1.0 0.00 0.00 0.00 28 1027.5
20260502203130 60 225 2.0 3.0 0.00 0.00 0.00 29 1027.6
20260502202625 62 206 5.0 8.0 0.00 0.00 0.00 28 1027.5
20260502202123 60 217 0.0 1.0 0.00 0.00 0.00 29 1027.5
20260502201619 59 77 7.0 9.0 0.00 0.00 0.00 29 1027.3
20260502201110 57 40 3.0 3.0 0.00 0.00 0.00 30 1027.6
20260502200606 57 38 7.0 9.0 0.00 0.00 0.00 31 1027.5
20260502200104 58 335 3.0 3.0 0.00 0.00 0.00 31 1027.3
20260502195601 60 252 1.0 3.0 0.00 0.00 0.00 31 1027.6
20260502195057 59 231 5.0 7.0 0.00 0.00 0.00 31 1027.6
20260502194554 58 201 3.0 3.0 0.00 0.00 0.00 31 1027.8
20260502194050 59 157 2.0 3.0 0.00 0.00 0.00 32 1027.6
20260502193548 60 45 5.0 6.0 0.00 0.00 0.00 30 1027.9
20260502193044 59 136 3.0 5.0 0.00 0.00 0.00 31 1027.8
20260502192540 59 67 4.0 7.0 0.00 0.00 0.00 31 1027.9
20260502192038 60 127 5.0 7.0 0.00 0.00 0.00 30 1027.8
20260502191534 60 209 2.0 3.0 0.00 0.00 0.00 29 1027.8
20260502191032 58 212 3.0 3.0 0.00 0.00 0.00 29 1027.9
20260502190530 59 333 8.0 13.0 0.00 0.00 0.00 30 1027.9
20260502190026 57 322 5.0 6.0 0.00 0.00 0.00 29 1027.9
20260502185521 58 136 5.0 6.0 0.00 0.00 0.00 27 1028.1
20260502185018 57 42 6.0 7.0 0.00 0.00 0.00 28 1028.1
20260502184514 58 135 4.0 5.0 0.00 0.00 0.00 25 1028.0
20260502184010 57 299 3.0 5.0 0.00 0.00 0.00 25 1028.1
20260502183501 56 231 5.0 6.0 0.00 0.00 0.00 25 1028.3
20260502182956 57 277 3.0 3.0 0.00 0.00 0.00 24 1028.6
20260502182452 57 141 3.0 3.0 0.00 0.00 0.00 25 1028.3
20260502181948 56 281 6.0 7.0 0.00 0.00 0.00 25 1028.5
20260502181446 58 5 3.0 3.0 0.00 0.00 0.00 24 1028.6
20260502180945 58 321 3.0 5.0 0.00 0.00 0.00 26 1028.5